User: anonymous   Login
Location: Montauk Point State Park
(41.0718°N, 71.8593°W)
Time: 03:08:45
(UTC-04:00)
Language:

Cosmos 1844 - Orbit

View from above orbital plane
View from above orbital plane
View from above satellite
View from above satellite

Ground track
Ground track

The orbit data is extracted from the following two-line orbital elements,

1 17973U 87041A   15116.18378208 -.00000071  00000-0 -11557-4 0  9991
2 17973 070.8975 123.7238 0032869 224.2133 204.8343 14.13989866442465
Epoch (UTC): 26 April 2015 04:24:38
Eccentricity: 0.0032869
inclination: 70.8975°
perigee height: 822 km
apogee height: 869 km
right ascension of ascending node: 123.7238°
argument of perigee: 224.2133°
revolutions per day: 14.13989866
mean anomaly at epoch: 204.8343°
orbit number at epoch: 44246

The dashed part of the orbit path shows where the satellite is in the earth's shadow,  

DLR